EW2748 Weather Reports


time (UTC)temp
C
wind
direction
speed
KPH
gust
KPH
rain 1hr
cm
rain 24hr
cm
rain mn
cm
humidity
%
barometer
mb
20260906091008 23 94 0.0 1.6 0.00 0.00 0.00 86 1014.0
20260906090512 23 94 0.0 0.0 0.00 0.00 0.00 86 1013.8
20260906090013 23 94 0.0 0.0 0.00 0.00 0.00 85 1013.7
20260906085503 23 94 0.0 3.2 0.00 0.00 0.00 85 1013.5
20260906085013 23 94 0.0 3.2 0.00 0.00 0.00 84 1013.7
20260906084534 23 144 0.0 4.8 0.00 0.00 0.00 83 1013.7
20260906084003 23 143 0.0 6.4 0.00 0.00 0.00 82 1013.4
20260906083508 23 165 1.6 6.4 0.00 0.00 0.00 81 1013.4
20260906083035 24 191 0.0 3.2 0.00 0.00 0.00 80 1013.4
20260906082512 24 134 0.0 4.8 0.00 0.00 0.00 79 1013.3
20260906082010 24 181 1.6 11.3 0.00 0.00 0.00 79 1013.3
20260906081519 24 93 4.8 11.3 0.00 0.00 0.00 79 1013.5
20260906081015 24 99 1.6 8.0 0.00 0.00 0.00 79 1013.7
20260906080504 24 82 3.2 12.9 0.00 0.00 0.00 78 1014.0
20260906080015 25 60 4.8 12.9 0.00 0.00 0.00 77 1014.0
20260906075511 25 92 1.6 9.7 0.00 0.00 0.00 76 1014.0
20260906075014 25 66 3.2 9.7 0.00 0.00 0.00 75 1014.0
20260906074529 25 67 4.8 11.3 0.00 0.00 0.00 75 1014.0
20260906074007 26 105 1.6 11.3 0.00 0.00 0.00 76 1014.0
20260906073513 26 94 1.6 12.9 0.00 0.00 0.00 76 1014.2
20260906073010 26 46 4.8 12.9 0.00 0.00 0.00 77 1014.1
20260906072506 26 27 4.8 12.9 0.00 0.00 0.00 78 1014.2
20260906072013 26 77 3.2 12.9 0.00 0.00 0.00 78 1014.3
20260906071531 26 26 3.2 9.7 0.00 0.00 0.00 78 1014.3
20260906071006 26 345 1.6 9.7 0.00 0.00 0.00 78 1014.4
20260906070510 26 322 0.0 3.2 0.00 0.00 0.00 80 1014.3
20260906070030 26 75 0.0 3.2 0.00 0.00 0.00 80 1014.0
20260906065503 26 75 0.0 3.2 0.00 0.00 0.00 80 1014.0
20260906065008 26 91 0.0 3.2 0.00 0.00 0.00 81 1013.9
20260906064524 26 96 0.0 3.2 0.00 0.00 0.00 82 1013.7
20260906064014 26 74 0.0 0.0 0.00 0.00 0.00 82 1013.6
20260906063509 26 133 0.0 0.0 0.00 0.00 0.00 83 1013.5
20260906063023 26 167 0.0 0.0 0.00 0.00 0.00 83 1013.4
20260906062515 26 167 0.0 0.0 0.00 0.00 0.00 83 1013.5
20260906062014 26 167 0.0 0.0 0.00 0.00 0.00 83 1013.7
20260906061518 26 149 0.0 0.0 0.00 0.00 0.00 83 1013.7
20260906061012 26 149 0.0 0.0 0.00 0.00 0.00 83 1013.9
20260906060513 26 149 0.0 0.0 0.00 0.00 0.00 83 1013.8
20260906060012 26 149 0.0 0.0 0.00 0.00 0.00 82 1014.0
20260906055508 26 149 0.0 0.0 0.00 0.00 0.00 83 1013.8
20260906055012 26 90 0.0 4.8 0.00 0.00 0.00 83 1013.7
20260906054532 26 90 0.0 4.8 0.00 0.00 0.00 84 1013.7
20260906054006 26 47 1.6 4.8 0.00 0.00 0.00 84 1014.0
20260906053512 26 134 0.0 1.6 0.00 0.00 0.00 84 1013.8
20260906053030 26 210 0.0 1.6 0.00 0.00 0.00 84 1013.7
20260906052506 26 210 0.0 1.6 0.00 0.00 0.00 84 1013.6
20260906051530 26 150 0.0 1.6 0.00 0.00 0.00 83 1013.1
20260906051014 26 139 0.0 3.2 0.00 0.00 0.00 84 1013.4
20260906050505 26 146 0.0 3.2 0.00 0.00 0.00 84 1013.4
20260906050023 25 148 0.0 0.0 0.00 0.00 0.00 84 1013.4
20260906045514 25 148 0.0 0.0 0.00 0.00 0.00 83 1013.3
20260906045015 25 148 0.0 0.0 0.00 0.00 0.00 83 1013.3
20260906044518 25 148 0.0 0.0 0.00 0.00 0.00 83 1013.3
20260906044015 25 148 0.0 0.0 0.00 0.00 0.00 83 1013.5
20260906043517 25 148 0.0 0.0 0.00 0.00 0.00 83 1013.6
20260906043016 25 148 0.0 0.0 0.00 0.00 0.00 83 1013.7
20260906042511 25 148 0.0 0.0 0.00 0.00 0.00 83 1013.7
20260906042016 25 148 0.0 0.0 0.00 0.00 0.00 83 1013.5
20260906041546 25 148 0.0 0.0 0.00 0.00 0.00 83 1013.7
20260906041007 25 148 0.0 0.0 0.00 0.00 0.00 83 1013.6
20260906040512 25 148 0.0 0.0 0.00 0.00 0.00 82 1013.7
20260906040035 25 148 0.0 0.0 0.00 0.00 0.00 83 1013.7
20260906035504 25 148 0.0 0.0 0.00 0.00 0.00 83 1013.6
20260906035010 25 148 0.0 0.0 0.00 0.00 0.00 82 1013.7
20260906034541 25 148 0.0 0.0 0.00 0.00 0.00 81 1013.7
20260906034023 25 148 0.0 0.0 0.00 0.00 0.00 81 1013.7
20260906033509 25 148 0.0 0.0 0.00 0.00 0.00 81 1013.7
20260906033027 25 148 0.0 0.0 0.00 0.00 0.00 81 1013.5
20260906032504 26 148 0.0 0.0 0.00 0.00 0.00 81 1013.7
20260906032007 26 148 0.0 0.0 0.00 0.00 0.00 80 1013.5
20260906031525 26 148 0.0 0.0 0.00 0.00 0.00 80 1013.6
20260906031012 26 148 0.0 0.0 0.00 0.00 0.00 80 1013.6
20260906030504 26 148 0.0 0.0 0.00 0.00 0.00 79 1013.5
20260906030022 26 148 0.0 0.0 0.00 0.00 0.00 78 1013.7
20260906025517 26 113 0.0 0.0 0.00 0.00 0.00 78 1013.8
20260906025004 26 113 0.0 0.0 0.00 0.00 0.00 77 1013.6
20260906024512 26 94 0.0 0.0 0.00 0.00 0.00 76 1013.4
20260906024012 26 94 0.0 0.0 0.00 0.00 0.00 76 1013.3
20260906023512 26 94 0.0 1.6 0.00 0.00 0.00 75 1013.2
20260906023008 26 94 0.0 1.6 0.00 0.00 0.00 74 1013.1
20260906022505 26 94 0.0 0.0 0.00 0.00 0.00 74 1013.2
20260906022011 26 94 0.0 0.0 0.00 0.00 0.00 74 1013.1
20260906021508 26 94 0.0 1.6 0.00 0.00 0.00 72 1013.0
20260906021008 26 94 0.0 1.6 0.00 0.00 0.00 72 1012.9
20260906020510 26 114 0.0 0.0 0.00 0.00 0.00 73 1012.8
20260906020033 26 113 0.0 0.0 0.00 0.00 0.00 73 1012.8
20260906015503 27 113 0.0 0.0 0.00 0.00 0.00 72 1012.8
20260906015006 27 113 0.0 0.0 0.00 0.00 0.00 72 1012.5
20260906014541 27 113 0.0 0.0 0.00 0.00 0.00 71 1012.7
20260906014018 27 113 0.0 0.0 0.00 0.00 0.00 71 1012.5
20260906013506 27 113 0.0 0.0 0.00 0.00 0.00 70 1012.4
20260906013024 27 113 0.0 0.0 0.00 0.00 0.00 70 1012.4
20260906012511 27 113 0.0 0.0 0.00 0.00 0.00 69 1012.4
20260906012005 27 113 0.0 0.0 0.00 0.00 0.00 70 1012.3
20260906011517 27 113 0.0 0.0 0.00 0.00 0.00 68 1012.2
20260906010521 27 113 0.0 0.0 0.00 0.00 0.00 67 1012.1
20260906010033 28 113 0.0 0.0 0.00 0.00 0.00 66 1012.0
20260906005509 28 113 0.0 3.2 0.00 0.00 0.00 65 1012.1
20260906005014 28 113 0.0 3.2 0.00 0.00 0.00 64 1011.8
20260906004510 28 103 1.6 3.2 0.00 0.00 0.00 65 1012.0
20260906003512 28 77 0.0 4.8 0.00 0.00 0.00 65 1011.9
20260906003032 29 74 1.6 4.8 0.00 0.00 0.00 65 1012.0
20260906002010 30 84 1.6 6.4 0.00 0.00 0.00 63 1012.1
20260906001538 30 91 1.6 6.4 0.00 0.00 0.00 63 1012.1
20260906001015 30 86 0.0 8.0 0.00 0.00 0.00 65 1012.3
20260906000509 30 83 1.6 9.7 0.00 0.00 0.00 64 1012.4
20260906000024 31 119 3.2 11.3 0.00 0.00 0.00 61 1012.5
20260905235516 31 82 3.2 11.3 0.00 0.00 0.00 58 1012.7
20260905235003 32 74 3.2 16.1 0.00 0.00 0.00 57 1012.7
20260905234522 32 63 1.6 16.1 0.00 0.00 0.00 56 1012.2
20260905234013 33 85 1.6 4.8 0.00 0.00 0.00 57 1012.1
20260905233514 33 297 0.0 3.2 0.00 0.00 0.00 57 1012.0
20260905233016 33 291 0.0 3.2 0.00 0.00 0.00 57 1011.9
20260905232515 34 286 0.0 4.8 0.00 0.00 0.00 57 1011.7
20260905232014 34 274 1.6 4.8 0.00 0.00 0.00 55 1011.7
20260905231518 34 283 0.0 3.2 0.00 0.00 0.00 56 1011.7
20260905231011 34 268 0.0 6.4 0.00 0.00 0.00 56 1011.7
20260905230513 34 277 1.6 6.4 0.00 0.00 0.00 55 1011.6
20260905230038 34 287 0.0 3.2 0.00 0.00 0.00 55 1011.6
20260905225507 33 293 1.6 3.2 0.00 0.00 0.00 54 1011.5
20260905225008 34 108 0.0 3.2 0.00 0.00 0.00 55 1011.6
20260905224542 34 108 0.0 3.2 0.00 0.00 0.00 52 1011.7
20260905224007 34 105 0.0 3.2 0.00 0.00 0.00 51 1011.6
20260905223509 33 276 0.0 0.0 0.00 0.00 0.00 55 1011.6
20260905223036 33 276 0.0 0.0 0.00 0.00 0.00 55 1011.7
20260905222517 33 276 0.0 0.0 0.00 0.00 0.00 56 1011.7
20260905222007 33 276 0.0 0.0 0.00 0.00 0.00 55 1011.7
20260905221527 33 276 0.0 1.6 0.00 0.00 0.00 56 1011.7
20260905221014 34 276 0.0 1.6 0.00 0.00 0.00 54 1011.7
20260905220515 35 276 0.0 3.2 0.00 0.00 0.00 52 1011.8
20260905220024 35 276 0.0 4.8 0.00 0.00 0.00 51 1011.8
20260905215016 36 2 1.6 4.8 0.00 0.00 0.00 48 1011.7
20260905214518 35 277 1.6 4.8 0.00 0.00 0.00 48 1011.8
20260905214011 35 77 0.0 6.4 0.00 0.00 0.00 48 1012.0
20260905213512 36 271 1.6 8.0 0.00 0.00 0.00 46 1011.9
20260905213032 36 272 1.6 8.0 0.00 0.00 0.00 47 1011.9
20260905212508 36 103 0.0 4.8 0.00 0.00 0.00 47 1011.8
20260905212014 36 262 0.0 1.6 0.00 0.03 0.00 47 1011.9
20260905211540 36 345 0.0 1.6 0.00 0.03 0.00 47 1011.9
20260905211003 36 269 0.0 1.6 0.00 0.05 0.00 45 1011.9
20260905210509 36 269 0.0 3.2 0.00 0.10 0.00 47 1011.7
20260905210035 36 269 0.0 3.2 0.00 0.13 0.00 44 1011.9
20260905205514 36 91 0.0 1.6 0.00 0.15 0.00 44 1011.9
20260905205009 36 77 0.0 6.4 0.00 0.15 0.00 44 1012.1
20260905204529 36 79 1.6 6.4 0.00 0.15 0.00 44 1012.1
20260905204013 36 56 0.0 4.8 0.00 0.15 0.00 43 1012.1
20260905203519 36 65 0.0 3.2 0.00 0.15 0.00 46 1012.2
20260905203037 36 266 0.0 1.6 0.00 0.15 0.00 47 1012.3
20260905202516 36 222 0.0 3.2 0.00 0.15 0.00 44 1012.2
20260905202014 36 273 0.0 3.2 0.00 0.15 0.00 45 1012.4
20260905201521 36 262 0.0 3.2 0.00 0.15 0.00 43 1012.4
20260905201011 37 252 0.0 6.4 0.00 0.15 0.00 42 1012.7
20260905200516 37 332 0.0 6.4 0.00 0.15 0.00 43 1012.8
20260905200031 37 89 0.0 6.4 0.00 0.15 0.00 45 1012.9
20260905195510 37 293 0.0 6.4 0.00 0.15 0.00 43 1013.0
20260905195012 36 84 1.6 4.8 0.00 0.15 0.00 46 1013.0
20260905194530 36 84 0.0 6.4 0.00 0.15 0.00 46 1013.0
20260905194005 36 127 0.0 6.4 0.00 0.15 0.00 47 1013.0
20260905193509 36 103 0.0 4.8 0.00 0.15 0.00 48 1013.3
20260905193034 36 267 1.6 3.2 0.00 0.15 0.00 47 1013.2
20260905192519 35 278 0.0 3.2 0.00 0.15 0.00 53 1013.2
20260905192010 35 329 0.0 3.2 0.00 0.15 0.00 50 1013.2
20260905191531 36 288 1.6 3.2 0.00 0.15 0.00 48 1013.5
20260905191016 36 256 0.0 4.8 0.00 0.15 0.00 48 1013.5
20260905190517 35 252 0.0 4.8 0.00 0.15 0.00 49 1013.6
20260905190028 35 96 1.6 4.8 0.00 0.15 0.00 49 1013.7
20260905185514 35 252 0.0 3.2 0.00 0.15 0.00 51 1013.8
20260905185018 36 270 0.0 4.8 0.00 0.15 0.00 49 1014.1
20260905184515 36 270 0.0 4.8 0.00 0.15 0.00 50 1013.9
20260905184010 36 272 0.0 6.4 0.00 0.15 0.00 49 1014.0
20260905183516 36 278 0.0 6.4 0.00 0.15 0.00 50 1014.1
20260905183040 36 283 3.2 6.4 0.00 0.15 0.00 48 1014.2
20260905182513 36 276 0.0 6.4 0.00 0.15 0.00 49 1014.2
20260905182004 36 101 0.0 4.8 0.00 0.15 0.00 51 1014.1
20260905181511 36 329 0.0 3.2 0.00 0.15 0.00 49 1014.2
20260905181006 36 28 0.0 6.4 0.00 0.15 0.00 51 1014.3
20260905180503 36 279 1.6 6.4 0.00 0.15 0.00 50 1014.4
20260905180007 36 287 0.0 4.8 0.00 0.15 0.00 54 1014.4
20260905175504 35 282 0.0 4.8 0.00 0.15 0.00 56 1014.3
20260905175008 35 316 0.0 3.2 0.00 0.15 0.00 53 1014.3
20260905174504 35 281 1.6 3.2 0.00 0.15 0.00 54 1014.5
20260905174004 35 290 0.0 8.0 0.00 0.15 0.00 54 1014.6
20260905173507 35 283 3.2 8.0 0.00 0.15 0.00 53 1014.6
20260905173024 35 279 3.2 8.0 0.00 0.15 0.00 58 1014.6
20260905172505 35 273 0.0 3.2 0.00 0.15 0.00 57 1014.7
20260905172007 35 252 0.0 6.4 0.00 0.15 0.00 56 1014.7
20260905171521 35 252 0.0 6.4 0.00 0.15 0.00 55 1014.9
20260905171003 35 280 3.2 6.4 0.00 0.15 0.00 56 1014.9
20260905170505 34 266 0.0 3.2 0.00 0.15 0.00 60 1014.8
20260905170015 34 278 0.0 4.8 0.00 0.15 0.00 59 1014.9
20260905165511 33 242 0.0 8.0 0.00 0.15 0.00 59 1014.9
20260905165005 33 268 1.6 8.0 0.00 0.15 0.00 58 1015.2
20260905164514 33 281 0.0 4.8 0.00 0.15 0.00 61 1015.2
20260905164010 33 82 1.6 4.8 0.00 0.15 0.00 59 1015.2
20260905163504 33 270 0.0 6.4 0.00 0.15 0.00 62 1015.2
20260905163013 33 281 1.6 6.4 0.00 0.15 0.00 59 1015.4
20260905162507 33 279 0.0 3.2 0.00 0.15 0.00 61 1015.4
20260905162011 32 350 0.0 3.2 0.00 0.15 0.00 65 1015.7
20260905161508 32 124 0.0 3.2 0.00 0.15 0.00 64 1015.7
20260905161008 32 300 1.6 3.2 0.00 0.15 0.00 65 1015.7
20260905160513 32 287 0.0 3.2 0.00 0.15 0.00 66 1015.7
20260905160028 32 321 0.0 3.2 0.00 0.15 0.00 70 1015.8
20260905155502 31 267 0.0 3.2 0.00 0.15 0.00 68 1015.7
20260905155008 31 297 0.0 4.8 0.00 0.15 0.00 68 1015.8
20260905154532 31 25 1.6 6.4 0.00 0.15 0.00 68 1015.8
20260905154003 31 272 1.6 6.4 0.00 0.15 0.00 69 1015.9
20260905153503 31 134 0.0 4.8 0.00 0.15 0.00 70 1015.9
20260905153022 30 151 0.0 4.8 0.00 0.15 0.00 70 1015.9
20260905152515 30 296 1.6 4.8 0.00 0.15 0.00 72 1015.9
20260905152002 30 312 0.0 1.6 0.00 0.15 0.00 73 1015.9
20260905151525 30 301 0.0 3.2 0.00 0.15 0.00 72 1016.0
20260905151014 30 15 0.0 3.2 0.00 0.15 0.00 72 1015.9
20260905150504 30 3 0.0 3.2 0.00 0.15 0.00 73 1015.9
20260905150018 29 290 0.0 0.0 0.00 0.15 0.00 75 1015.8
20260905145507 29 284 0.0 0.0 0.00 0.15 0.00 77 1015.8
20260905145010 28 284 0.0 1.6 0.00 0.15 0.00 77 1015.8
20260905144512 28 311 0.0 1.6 0.00 0.15 0.00 78 1015.9
20260905144425 28 240 0.0 0.0 0.00 0.15 0.00 79 1015.9
20260905142503 27 293 0.0 0.0 0.00 0.15 0.00 79 1015.9
20260905142009 27 293 0.0 0.0 0.00 0.15 0.00 81 1015.9
20260905141529 27 293 0.0 0.0 0.00 0.15 0.00 82 1016.0
20260905141004 27 300 0.0 0.0 0.00 0.15 0.00 83 1016.0
20260905140506 27 285 0.0 0.0 0.00 0.15 0.00 84 1016.0
20260905140026 27 283 0.0 0.0 0.00 0.15 0.00 85 1016.1
20260905135512 26 281 0.0 0.0 0.00 0.15 0.00 86 1016.1
20260905135003 26 281 0.0 0.0 0.00 0.15 0.00 85 1016.1
20260905134515 26 281 0.0 0.0 0.00 0.15 0.00 86 1016.2
20260905134011 26 260 0.0 0.0 0.00 0.15 0.00 87 1016.3
20260905133503 26 260 0.0 0.0 0.00 0.15 0.00 87 1016.3
20260905133016 26 260 0.0 0.0 0.00 0.15 0.00 87 1016.4
20260905132510 26 260 0.0 0.0 0.00 0.15 0.00 87 1016.3
20260905132015 26 260 0.0 0.0 0.00 0.15 0.00 89 1016.3
20260905131513 25 260 0.0 0.0 0.00 0.15 0.00 90 1016.3
20260905131006 25 260 0.0 0.0 0.00 0.15 0.00 91 1016.4
20260905130512 25 260 0.0 0.0 0.00 0.15 0.00 93 1016.4
20260905130004 24 260 0.0 0.0 0.00 0.15 0.00 93 1016.4
20260905125506 24 260 0.0 0.0 0.00 0.15 0.00 94 1016.4
20260905125008 24 260 0.0 0.0 0.00 0.15 0.00 95 1016.4
20260905124528 23 260 0.0 0.0 0.00 0.15 0.00 96 1016.5
20260905124004 23 260 0.0 0.0 0.00 0.15 0.00 96 1016.6
20260905123506 23 260 0.0 0.0 0.00 0.15 0.00 97 1016.5
20260905123026 23 260 0.0 0.0 0.00 0.15 0.00 97 1016.5
20260905122512 23 260 0.0 0.0 0.00 0.15 0.00 97 1016.4
20260905122006 23 260 0.0 0.0 0.00 0.15 0.00 97 1016.4
20260905121524 22 260 0.0 0.0 0.00 0.15 0.00 97 1016.3
20260905121017 22 260 0.0 0.0 0.00 0.15 0.00 97 1016.2
20260905120503 22 260 0.0 0.0 0.00 0.15 0.00 97 1016.2
20260905120017 22 260 0.0 0.0 0.00 0.15 0.00 97 1016.2
20260905115511 22 260 0.0 0.0 0.00 0.15 0.00 97 1016.1
20260905115015 22 260 0.0 0.0 0.00 0.15 0.00 97 1016.0
20260905114514 22 260 0.0 0.0 0.00 0.15 0.00 97 1015.7
20260905114010 22 260 0.0 0.0 0.00 0.15 0.00 97 1015.6
20260905113514 22 260 0.0 0.0 0.00 0.15 0.00 97 1015.5
20260905113006 22 260 0.0 0.0 0.00 0.15 0.00 97 1015.4
20260905112509 22 260 0.0 0.0 0.00 0.15 0.00 97 1015.4
20260905112011 22 260 0.0 0.0 0.00 0.15 0.00 97 1015.2
20260905111535 22 260 0.0 0.0 0.00 0.15 0.00 97 1015.2
20260905111007 22 260 0.0 0.0 0.00 0.15 0.00 97 1015.2
20260905110507 22 260 0.0 0.0 0.00 0.15 0.00 96 1015.0
20260905105516 22 260 0.0 0.0 0.00 0.15 0.00 96 1015.3
20260905105006 22 260 0.0 0.0 0.00 0.15 0.00 96 1015.3
20260905104523 22 260 0.0 0.0 0.00 0.15 0.00 96 1015.3
20260905104016 22 260 0.0 0.0 0.00 0.15 0.00 96 1015.3
20260905103019 22 260 0.0 0.0 0.00 0.15 0.00 96 1014.9
20260905102514 22 260 0.0 0.0 0.00 0.15 0.00 96 1014.8
20260905102016 22 260 0.0 0.0 0.00 0.15 0.00 96 1014.7
20260905101517 22 260 0.0 0.0 0.00 0.15 0.00 96 1014.7
20260905101011 22 260 0.0 0.0 0.00 0.15 0.00 96 1014.7
20260905100513 22 260 0.0 0.0 0.00 0.15 0.00 96 1014.7
20260905100010 22 260 0.0 0.0 0.00 0.15 0.00 96 1014.7
20260905095510 22 260 0.0 0.0 0.00 0.15 0.00 96 1014.7
20260905095016 22 260 0.0 0.0 0.00 0.15 0.00 96 1014.8
20260905094534 22 260 0.0 0.0 0.00 0.15 0.00 96 1014.9
20260905094005 22 260 0.0 0.0 0.00 0.15 0.00 96 1014.9
20260905093512 22 260 0.0 0.0 0.00 0.15 0.00 96 1014.8
20260905093031 22 260 0.0 0.0 0.00 0.15 0.00 96 1014.9
20260905092506 22 260 0.0 0.0 0.00 0.15 0.00 96 1014.7
20260905092012 22 260 0.0 0.0 0.00 0.15 0.00 96 1014.6
20260905091531 22 260 0.0 0.0 0.00 0.15 0.00 96 1014.5